Other Public Products
Issued by NWS Charleston, SC

Current Version | Previous Version | Text Only | Print | Product List | Glossary Off
Versions: 1 2 3 4 5 6 7 8 9 10 11 12 13 14 15 16 17 18 19 20 21 22 23 24 25 26 27 28 29 30 31 32 33 34 35 36 37 38 39 40 41 42 43 44 45 46 47 48 49 50

000
FPUS82 KCHS 242128
OPUCHS

TEST...KCHS/KSAV Gateway Observations...TEST
National Weather Service Charleston SC
500 PM EDT SUN SEP 24 2017

NOTE: "fair" indicates few or no clouds below 12,000 feet with no
significant weather and/or obstructions to visibility.

SCZ050-WAZ558-NCZ071-TXZ119-213-PAZ071-DCZ001-FLZ074-172-MI076-
NYZ176-178-MAZ016-IL014-TNZ027-NJZ106-GAZ044-MD014-242200-

...Gateway Observations for Charleston International...

CITY           SKY/WX    TMP DP  RH WIND       PRES   REMARKS
Chas Airport   CLOUDY    82  68  62 NE8       29.93F
Seattle        MOSUNNY   68  50  52 NW8       30.14S
Charlotte      CLOUDY    85  67  54 N8        30.03F
Dallas DFW     MOSUNNY   92  63  38 SE12      29.84F HX  93
Dallas Love    MOSUNNY   92  63  38 S13       29.85F HX  93
Philladelphia  MOSUNNY   90  64  42 E7        30.01F HX  91
Wash National  PTSUNNY   90  64  42 NE8       30.03F HX  91
Baltimore      MOSUNNY   88  61  40 SE9       30.03S
Miami          PTSUNNY   89  73  59 NE7       29.83S HX  97
Detroit        MOSUNNY   88  63  43 SE7       30.09F
Newark         SUNNY     91  62  37 SE7       30.00F HX  91
Laguardia      MOSUNNY   89  64  43 NE5       30.00F HX  90
J F K          SUNNY     82  61  48 SE7       30.03F
Boston Logan   SUNNY     72  64  76 E6        30.02S
Ft. Lauderdale MOSUNNY   85  76  74 NE12      29.82S HX  94
Chicago O`Hare MOSUNNY   92  58  31 S8        30.00F HX  91
Chicago Midway MOSUNNY   91  58  32 SE8       30.00F HX  90
Houston Bush   MOSUNNY   89  71  55 E16       29.84F HX  95
Houston Hobby  MOSUNNY   91  71  51 E14       29.83F HX  97
Nashville      CLOUDY    87  64  46 SE8       30.00F
Atlanta        MOSUNNY   84  64  50 NE6       30.02F

$$

GAZ044-118-TXZ119-213-NCZ071-DCZ001-MDZ014-506-PAZ021-071-NJZ106-
NYZ176-178-MAZ106-OHZ011-021-055-MIZ076-KYZ091-ILZ014-INZ047-
MNZ060-ONZ431-242200-

...Gateway Observations for Savannah International...

CITY           SKY/WX    TMP DP  RH WIND       PRES   REMARKS
Savannah Arpt  PTSUNNY   87  65  47 NE8       29.94F
Atlanta        MOSUNNY   84  64  50 NE6       30.02F
Charlotte      CLOUDY    85  67  54 N8        30.03F
Dallas DFW     MOSUNNY   92  63  38 SE12      29.84F HX  93
Houston Bush   MOSUNNY   89  71  55 E16       29.84F HX  95
Wash National  PTSUNNY   90  64  42 NE8       30.03F HX  91
Wash Dulles    PTSUNNY   87  65  47 CALM      30.04F
Baltimore      MOSUNNY   88  61  40 SE9       30.03S
Philadelphia   MOSUNNY   90  64  42 E7        30.01F HX  91
Newark         SUNNY     91  62  37 SE7       30.00F HX  91
Laguardia      MOSUNNY   89  64  43 NE5       30.00F HX  90
J F K          SUNNY     82  61  48 SE7       30.03F
Boston         SUNNY     72  64  76 E6        30.02S
Pittsburg      MOSUNNY   89  60  37 E9        30.09F
Akron          MOSUNNY   90  58  33 E6        30.10F
Cleveland      MOSUNNY   88  65  46 NE13      30.10F HX  90
Cincinnati     MOSUNNY   88  53  30 SE9       30.05F
Columbus       SUNNY     87  58  37 SE6       30.05F
Detroit        MOSUNNY   88  63  43 SE7       30.09F
Chicago O`Hare MOSUNNY   92  58  31 S8        30.00F HX  91
Minneapolis    PTSUNNY   90  63  40 S17       29.85F HX  91
Indianapolis   MOSUNNY   90  54  29 E10       30.03F
Toronto Canada MOSUNNY   90  66  45 SE8       30.08F HX  92

$$




USA.gov is the U.S. government's official web portal to all federal, state and local government web resources and services.